Powrót do katalogu

STARLINK-3178

AktywnyŁącznośćVLEO
NORAD 51467·PAYLOAD·🇺🇸 United States

Wystrzelony Feb 3, 2022 z Cape Canaveral Space Force Station

Loading…

Następne Przeloty (najbliższe 24 godziny)

TLE

ŚwieżeSource: CelesTrak SupGP

Epoka: Sep 14, 2026, 21:12 UTC

1 51467C 22010M   26257.88381944 -.00027535  00000+0 -83589-3 0  2571
2 51467  53.1588 142.2074 0001302  90.2297  60.4267 15.33548983    15

Śledź STARLINK-3178 w czasie rzeczywistym z AllMySat

Download on the App Store